Location: Ch�risy
(50.2331°N, 2.9131°E)
Time: 02:28:21
(UTC+00:00)

Cosmos 1603 - Pass Details

Date: 17 January 2021
Orbit: 829 x 861 km, 71.0° (Epoch: 28 February)

Event Time Altitude Azimuth Distance (km) Brightness Sun altitude
Rises 17:23:33 0° 330° (NNW) 3,416 7.0 -10.3°
Reaches altitude 10° 17:26:00 10° 331° (NNW) 2,482 6.3 -10.7°
Maximum altitude 17:31:44 88° 63° (ENE) 861 3.7 -11.6°
Drops below altitude 10° 17:37:28 10° 152° (SSE) 2,486 6.0 -12.4°
Sets 17:39:55 0° 152° (SSE) 3,421 6.8 -12.8°
